User: anonymous   Login
Location: Unspecified
(0.0000°N, 0.0000°E)
Time: 04:07:59
(UTC+00:00)
Language:

NNS O-25 - Orbit

View from above orbital plane
View from above orbital plane
View from above satellite
View from above satellite

Ground track
Ground track

The orbit data is extracted from the following two-line orbital elements,

1 19419U 88074A   18344.16835431  .00000061  00000-0  89838-4 0  9999
2 19419  89.9890  18.3041 0095894 346.9416  75.2113 13.42201302483297
Epoch (UTC): 10 December 2018 04:02:25
Eccentricity: 0.0095894
inclination: 89.9890°
perigee height: 1029 km
apogee height: 1173 km
right ascension of ascending node: 18.3041°
argument of perigee: 346.9416°
revolutions per day: 13.42201302
mean anomaly at epoch: 75.2113°
orbit number at epoch: 48329

The dashed part of the orbit path shows where the satellite is in the earth's shadow,  

DLR